Location: Pian di Sc�
(43.6333°N, 11.5500°E)
Time: 18:08:45
(UTC+00:00)

FALCON 9 DEB - Pass Details

Date: 07 August 2020
Orbit: 428 x 440 km, 53.0° (Epoch: 17 September)

Event Time Altitude Azimuth Distance (km) Brightness Sun altitude
Rises 03:26:35 0° 301° (WNW) 2,427 6.6 -7.8°
Reaches altitude 10° 03:28:45 10° 296° (WNW) 1,552 5.6 -7.4°
Maximum altitude 03:32:07 48° 221° (SW) 577 3.4 -6.9°
Drops below altitude 10° 03:35:28 10° 146° (SE) 1,536 6.0 -6.4°
Sets 03:37:36 0° 140° (SE) 2,397 7.0 -6.0°
